EW9598 Weather Reports


time (UTC)temp
C
wind
direction
speed
KPH
gust
KPH
rain 1hr
cm
rain 24hr
cm
rain mn
cm
humidity
%
barometer
mb
20260504150931 24 96 0.0 3.2 0.00 0.00 0.00 55 1006.0
20260504150700 24 128 0.0 8.0 0.00 0.00 0.00 56 1006.0
20260504141330 24 8 0.0 3.2 0.00 0.00 0.00 59 1006.0
20260504140814 24 139 0.0 3.2 0.00 0.00 0.00 61 1006.0
20260504140314 24 357 3.2 3.2 0.00 0.00 0.00 58 1006.0
20260504130729 21 197 0.0 3.2 0.00 0.00 0.00 71 1006.6
20260504130242 20 210 0.0 3.2 0.00 0.00 0.00 70 1007.0
20260504120110 13 99 0.0 0.0 0.00 0.00 0.00 95 1007.7
20260504110434 12 89 0.0 0.0 0.00 0.00 0.00 95 1007.0
20260504100202 13 109 0.0 0.0 0.00 0.00 0.00 89 1007.0
20260504081524 15 112 0.0 0.0 0.00 0.00 0.00 77 1006.3
20260504081229 15 278 0.0 0.0 0.00 0.00 0.00 77 1006.3
20260504080502 16 3 0.0 0.0 0.00 0.00 0.00 76 1006.6
20260504050200 16 19 0.0 3.2 0.00 0.00 0.00 71 1007.3
20260504045635 16 222 0.0 3.2 0.00 0.00 0.00 71 1007.7
20260504045129 16 67 0.0 0.0 0.00 0.00 0.00 71 1007.7
20260504044624 16 113 0.0 0.0 0.00 0.00 0.00 71 1007.7
20260504044114 17 147 0.0 3.2 0.00 0.00 0.00 70 1007.7
20260504043613 17 58 0.0 3.2 0.00 0.00 0.00 69 1007.7
20260504043113 17 75 0.0 3.2 0.00 0.00 0.00 70 1007.7
20260504042836 17 165 0.0 3.2 0.00 0.00 0.00 70 1008.0
20260504042319 17 139 0.0 3.2 0.00 0.00 0.00 69 1008.0
20260504041606 17 73 0.0 0.0 0.00 0.00 0.00 69 1008.0
20260504041321 17 35 0.0 8.0 0.00 0.00 0.00 68 1008.0
20260504040605 17 9 0.0 8.0 0.00 0.00 0.00 69 1008.3
20260504040053 17 111 0.0 0.0 0.00 0.00 0.00 69 1008.3
20260504035807 17 135 0.0 3.2 0.00 0.00 0.00 69 1008.0
20260504035035 17 126 0.0 3.2 0.00 0.00 0.00 67 1008.3
20260504034529 17 67 0.0 0.0 0.00 0.00 0.00 68 1008.3
20260504034029 17 29 0.0 0.0 0.00 0.00 0.00 68 1008.3
20260504033528 17 223 0.0 3.2 0.00 0.00 0.00 68 1008.3
20260504033244 17 352 0.0 0.0 0.00 0.00 0.00 67 1008.7
20260504032727 17 118 0.0 0.0 0.00 0.00 0.00 67 1008.3
20260504031954 17 114 0.0 3.2 0.00 0.00 0.00 66 1008.3
20260504031714 17 47 0.0 3.2 0.00 0.00 0.00 67 1008.3
20260504030933 17 4 0.0 0.0 0.00 0.00 0.00 66 1008.3
20260504030436 17 127 0.0 3.2 0.00 0.00 0.00 66 1008.3
20260504025928 17 79 0.0 3.2 0.00 0.00 0.00 65 1008.3
20260504025428 17 19 0.0 0.0 0.00 0.00 0.00 64 1008.3
20260504024928 17 98 0.0 3.2 0.00 0.00 0.00 65 1008.3
20260504024412 17 136 0.0 3.2 0.00 0.00 0.00 64 1008.3
20260504023913 17 164 0.0 3.2 0.00 0.00 0.00 64 1008.3
20260504023358 18 4 0.0 3.2 0.00 0.00 0.00 63 1008.3
20260504022853 17 358 0.0 3.2 0.00 0.00 0.00 62 1008.3
20260504022336 17 135 0.0 0.0 0.00 0.00 0.00 63 1008.0
20260504021832 17 156 0.0 3.2 0.00 0.00 0.00 63 1008.0
20260504021317 18 209 0.0 3.2 0.00 0.00 0.00 62 1008.0
20260504020811 18 96 0.0 0.0 0.00 0.00 0.00 62 1008.0
20260504020310 18 129 0.0 0.0 0.00 0.00 0.00 62 1008.0
20260504015755 18 27 0.0 0.0 0.00 0.00 0.00 62 1008.0
20260504015229 18 126 0.0 0.0 0.00 0.00 0.00 61 1008.0
20260504014959 18 108 0.0 0.0 0.00 0.00 0.00 60 1008.0
20260504014229 18 123 0.0 0.0 0.00 0.00 0.00 60 1008.0
20260504013732 18 159 0.0 0.0 0.00 0.00 0.00 60 1008.0
20260504013228 18 90 0.0 0.0 0.00 0.00 0.00 60 1007.7
20260504012712 18 93 0.0 0.0 0.00 0.00 0.00 58 1008.0
20260504012217 19 90 0.0 0.0 0.00 0.00 0.00 57 1008.0
20260504011657 19 111 0.0 0.0 0.00 0.00 0.00 55 1008.0
20260504011156 20 157 0.0 0.0 0.00 0.00 0.00 55 1007.7
20260504010916 20 85 0.0 0.0 0.00 0.00 0.00 56 1007.7
20260504010416 20 91 0.0 0.0 0.00 0.00 0.00 54 1008.0
20260504005648 20 110 0.0 0.0 0.00 0.00 0.00 53 1008.0
20260504005133 21 75 0.0 8.0 0.00 0.00 0.00 52 1007.7
20260504004627 21 312 0.0 8.0 0.00 0.00 0.00 50 1007.7
20260504004126 21 83 0.0 0.0 0.00 0.00 0.00 51 1007.7
20260504003622 21 133 0.0 0.0 0.00 0.00 0.00 51 1007.7
20260504003108 22 121 0.0 3.2 0.00 0.00 0.00 49 1007.7
20260504002829 22 58 0.0 3.2 0.00 0.00 0.00 48 1007.7
20260504002106 22 335 0.0 8.0 0.00 0.00 0.00 47 1007.7
20260504001829 22 55 0.0 8.0 0.00 0.00 0.00 46 1008.0
20260504001041 22 120 0.0 8.0 0.00 0.00 0.00 46 1007.7
20260504000819 23 21 0.0 8.0 0.00 0.00 0.00 46 1007.7
20260504000029 23 103 0.0 0.0 0.00 0.00 0.00 45 1007.7
20260503235534 23 105 0.0 3.2 0.00 0.00 0.00 45 1008.0
20260503235028 23 112 0.0 8.0 0.00 0.00 0.00 45 1008.0
20260503234532 23 54 0.0 8.0 0.00 0.00 0.00 44 1008.0
20260503234029 23 123 0.0 8.0 0.00 0.00 0.00 44 1007.7
20260503233532 23 104 0.0 8.0 0.00 0.00 0.00 43 1008.0
20260503233013 23 125 0.0 12.9 0.00 0.00 0.00 42 1008.0
20260503232519 24 354 1.6 12.9 0.00 0.00 0.00 41 1008.0
20260503232002 24 324 1.6 8.0 0.00 0.00 0.00 41 1008.0
20260503231500 24 163 0.0 8.0 0.00 0.00 0.00 41 1008.0
20260503230955 24 138 0.0 8.0 0.00 0.00 0.00 42 1008.0
20260503230446 24 104 1.6 12.9 0.00 0.00 0.00 41 1008.0
20260503225950 24 116 4.8 16.1 0.00 0.00 0.00 41 1008.0
20260503225433 24 358 3.2 16.1 0.00 0.00 0.00 41 1008.0
20260503224927 24 48 0.0 16.1 0.00 0.00 0.00 41 1008.0
20260503224428 24 195 0.0 16.1 0.00 0.00 0.00 40 1008.0
20260503223923 24 168 0.0 16.1 0.00 0.00 0.00 41 1008.0
20260503223407 24 147 6.4 16.1 0.00 0.00 0.00 41 1008.0
20260503222902 24 175 0.0 16.1 0.00 0.00 0.00 41 1008.0
20260503222405 24 325 3.2 8.0 0.00 0.00 0.00 40 1008.0
20260503221850 24 21 0.0 20.9 0.00 0.00 0.00 41 1008.3
20260503221350 24 333 3.2 20.9 0.00 0.00 0.00 40 1008.0
20260503220845 25 301 12.9 16.1 0.00 0.00 0.00 40 1007.7
20260503220330 25 109 0.0 12.9 0.00 0.00 0.00 42 1008.0
20260503215829 25 130 0.0 12.9 0.00 0.00 0.00 42 1008.3
20260503215324 25 123 3.2 12.9 0.00 0.00 0.00 41 1008.3
20260503214811 25 71 0.0 12.9 0.00 0.00 0.00 41 1008.3
20260503214546 25 304 1.6 8.0 0.00 0.00 0.00 39 1008.0
20260503213815 25 51 3.2 12.9 0.00 0.00 0.00 41 1008.3
20260503213310 24 3 4.8 12.9 0.00 0.00 0.00 40 1008.3
20260503212805 24 338 4.8 12.9 0.00 0.00 0.00 41 1008.3
20260503212253 25 272 0.0 20.9 0.00 0.00 0.00 41 1008.3
20260503211747 24 89 0.0 20.9 0.00 0.00 0.00 40 1008.3
20260503211237 25 351 4.8 16.1 0.00 0.00 0.00 38 1008.7
20260503210737 25 35 1.6 12.9 0.00 0.00 0.00 38 1009.0
20260503210233 25 88 0.0 16.1 0.00 0.00 0.00 40 1009.0
20260503205957 25 4 3.2 16.1 0.00 0.00 0.00 42 1009.4
20260503205213 25 78 0.0 16.1 0.00 0.00 0.00 39 1009.0
20260503204705 25 8 8.0 16.1 0.00 0.00 0.00 38 1009.4
20260503204151 25 331 0.0 12.9 0.00 0.00 0.00 41 1009.4
20260503203641 25 340 0.0 12.9 0.00 0.00 0.00 38 1009.4
20260503203139 25 358 0.0 20.9 0.00 0.00 0.00 39 1009.7
20260503202630 25 323 3.2 20.9 0.00 0.00 0.00 38 1009.7
20260503202112 25 94 0.0 20.9 0.00 0.00 0.00 42 1009.7
20260503201855 25 334 4.8 16.1 0.00 0.00 0.00 38 1009.7
20260503201103 25 348 1.6 16.1 0.00 0.00 0.00 40 1010.0
20260503200553 25 348 9.7 16.1 0.00 0.00 0.00 40 1010.4
20260503195535 25 142 0.0 12.9 0.00 0.00 0.00 42 1010.4
20260503195340 25 343 3.2 12.9 0.00 0.00 0.00 41 1010.8
20260503194513 25 31 8.0 12.9 0.00 0.00 0.00 42 1011.1
20260503194017 24 6 6.4 8.0 0.00 0.00 0.00 45 1011.1
20260503193502 24 108 0.0 16.1 0.00 0.00 0.00 42 1011.1
20260503192950 23 8 4.8 16.1 0.00 0.00 0.00 41 1011.5
20260503192446 24 262 0.0 12.9 0.00 0.00 0.00 43 1011.5
20260503191933 24 55 0.0 12.9 0.00 0.00 0.00 42 1011.8
20260503191433 24 330 0.0 12.9 0.00 0.00 0.00 41 1011.8
20260503190912 25 341 1.6 3.2 0.00 0.00 0.00 43 1012.2
20260503190359 24 41 1.6 16.1 0.00 0.00 0.00 44 1012.2
20260503185846 24 5 0.0 16.1 0.00 0.00 0.00 43 1012.2
20260503185338 24 146 0.0 16.1 0.00 0.00 0.00 42 1012.2
20260503184837 23 200 3.2 20.9 0.00 0.00 0.00 43 1012.2
20260503184338 23 258 0.0 20.9 0.00 0.00 0.00 40 1012.2
20260503183833 24 357 4.8 8.0 0.00 0.00 0.00 43 1012.5
20260503183331 24 201 0.0 8.0 0.00 0.00 0.00 43 1012.8
20260503182831 23 45 0.0 8.0 0.00 0.00 0.00 48 1012.8
20260503182312 23 41 0.0 12.9 0.00 0.00 0.00 41 1013.2
20260503181817 23 351 1.6 12.9 0.00 0.00 0.00 45 1012.8
20260503181300 22 15 3.2 8.0 0.00 0.00 0.00 43 1013.5
20260503180804 22 14 1.6 20.9 0.00 0.00 0.00 42 1013.5
20260503180258 22 340 6.4 20.9 0.00 0.00 0.00 42 1013.5
20260503175753 22 343 1.6 16.1 0.00 0.00 0.00 43 1013.9
20260503175238 22 219 0.0 16.1 0.00 0.00 0.00 44 1013.9
20260503174731 23 198 1.6 8.0 0.00 0.00 0.00 46 1014.2
20260503174231 22 350 0.0 20.9 0.00 0.00 0.00 45 1014.2
20260503173731 22 47 3.2 20.9 0.00 0.00 0.00 47 1014.2
20260503173226 22 131 0.0 12.9 0.00 0.00 0.00 49 1013.9
20260503172938 21 12 3.2 16.1 0.00 0.00 0.00 44 1014.2
20260503172204 21 316 6.4 16.1 0.00 0.00 0.00 45 1014.5
20260503171654 21 344 8.0 12.9 0.00 0.00 0.00 46 1014.5
20260503171153 20 84 0.0 12.9 0.00 0.00 0.00 48 1014.9
20260503170916 20 151 4.8 12.9 0.00 0.00 0.00 45 1014.9
20260503170158 21 350 0.0 12.9 0.00 0.00 0.00 44 1014.9